Other Public Products
Issued by NWS Grand Forks, ND

Home | Current Version | Previous Version | Graphics & Text | Print | Product List | Glossary On
Versions: 1 2 3 4 5 6 7 8 9 10 11 12 13 14 15 16 17 18 19 20 21 22 23 24 25 26 27 28 29 30 31 32 33 34 35 36 37 38 39 40 41 42 43 44 45 46 47 48 49 50
000
FPUS83 KFGF 231931
OPUFGF
PRAIRIE TO PINES WEATHER ROUNDUP
NATIONAL WEATHER SERVICE EASTERN NORTH DAKOTA/GRAND FORKS ND
200 PM CDT WED APR 23 2014

 **SATELLITE DATA USED TO AUGMENT SKY COVER AT AUTOMATED STATIONS**
 *****  WEATHER ACROSS EASTERN NORTH DAKOTA  *****

CITY           SKY/WX    TMP DP  RH WIND       PRES   REMARKS
GRAND FORKS    LGT RAIN  45  41  86 SE21      29.87S
GRAND FORKS AF LGT RAIN  45  43  93 SE17G28   29.86S FOG
GRAND CITY NWS   N/A     43 N/A N/A SE21        N/A
BUXTON           N/A     43  43  99 SE18        N/A
DEVILS LAKE    CLOUDY    43  36  75 SE25G31   29.74S
FARGO          CLOUDY    44  40  85 SE18G26   29.85S
WAHPETON ARPT  CLOUDY    41  37  87 SE25G35   29.81F
$$

 *****  WEATHER ACROSS CENTRAL AND WESTERN NORTH DAKOTA  *****

CITY           SKY/WX    TMP DP  RH WIND       PRES   REMARKS
JAMESTOWN      LGT RAIN  44  41  89 SE29G39   29.69F
BISMARCK       CLOUDY    56  40  55 SE32G38   29.55F
MINOT          LGT RAIN  50  42  74 E25G37    29.56S
MINOT AFB      CLOUDY    48  45  90 SE31G39   29.56S
GARRISON         N/A     53  41  63 S20G31    29.52R
WILLISTON      CLOUDY    52  44  74 W16       29.45R
DICKINSON      CLOUDY    55  41  59 W28G33    29.48R
HETTINGER      CLOUDY    55  41  59 W24G36    29.53R
$$

 *****  OTHER OBSERVATIONS NORTHEAST NORTH DAKOTA  *****

CITY           SKY/WX    TMP DP  RH WIND       PRES   REMARKS
WALHALLA       LGT RAIN  43  43 100 SE16G24   29.86F
LANGDON        CLOUDY    41  39  93 SE24G31   29.79F FOG
CAVALIER       CLOUDY    45  39  81 SE10G16   29.87F FOG
GRAFTON        CLOUDY    43  41  93 SE17G24   29.88S FOG
CANDO          MIX PCPN  45  41  87 SE29G35   29.73F
FORT TOTTEN      N/A     45  41  85 SE20      29.95S
ROLLA          LGT RAIN  41  41 100 SE24G36   29.74F
RUGBY          MOCLDY    45  43  93 SE22G32   29.66S
 ***** THE ABOVE OBSERVATIONS ARE NON NWS ARE NOT QUALITY
        CONTROLLED AND MAY MIS-REPORT RAIN FOR SNOW...
$$

 *****  OTHER OBSERVATIONS SOUTHEAST NORTH DAKOTA *****

CITY           SKY/WX    TMP DP  RH WIND       PRES   REMARKS
COOPERSTOWN    CLOUDY    41  41 100 SE30G37   29.78S
VALLEY CITY    CLOUDY    41  41 100 SE17G36   29.76F FOG
OAKES          CLOUDY    46  39  76 SE23G31   29.72S
GWINNER        CLOUDY    45  43  93 SE21G29   29.77R
SHEYENNE NWR     N/A     44  42  92 SE23      29.95S
BUFFALO          N/A     42  39  87 SE33        N/A
WYNDMERE       NOT AVBL
 ***** THE ABOVE OBSERVATIONS ARE NON NWS ARE NOT QUALITY
       CONTROLLED AND MAY MIS-REPORT RAIN FOR SNOW...
$$

  *****  WEATHER ACROSS NORTHERN MINNESOTA  *****

CITY           SKY/WX    TMP DP  RH WIND       PRES   REMARKS
FLAG ISLAND    CLOUDY    52  23  32 E9        29.97F
WARROAD        CLOUDY    55  30  38 E10       29.94F
ROSEAU         CLOUDY    57  23  26 SE18G26   29.92F
HALLOCK          N/A     50  37  62 S16       29.88S
THF RVR FALLS  CLOUDY    45  34  65 SE20G25   29.91F
HALSTAD          N/A     43  41  93 SE23        N/A
FOSSTON        LGT RAIN  45  30  57 SE13G24   29.90F
BAUDETTE       CLOUDY    56  23  27 SE14G21   29.97F
WASKISH        CLOUDY    55  27  33 SE13G21   29.96F
CROOKSTON      RAIN      43  43 100 SE14      29.90S
$$
  *****  WEATHER ACROSS CENTRAL AND WEST MINNESOTA  *****

CITY           SKY/WX    TMP DP  RH WIND       PRES   REMARKS
BEMIDJI        CLOUDY    50  25  37 SE14G26   29.94F
PARK RAPIDS    LGT RAIN  45  35  68 SE17G26   29.94F
WADENA         RAIN      37  36  93 SE21      29.93F
DETROIT LAKES  RAIN      39  37  93 SE21G30   29.90S
MOORHEAD       CLOUDY    43  43 100 SE20G28   29.87R
FERGUS FALLS   LGT RAIN  39  39 100 SE24G32   29.83F
ELBOW LAKE     LGT RAIN  40  38  93 SE22G32   29.85F
MORRIS MN      CLOUDY    43  37  81 SE24      29.85F
STAPLES        RAIN      39  36  87 SE9       29.98S
WHEATON        LGT RAIN  45  41  87 SE32G39   29.81F
$$
  *****  WEATHER ELSEWHERE ACROSS MINNESOTA  *****

CITY           SKY/WX    TMP DP  RH WIND       PRES   REMARKS
DULUTH         PTSUNNY   49  27  42 E10       30.07F
INTRNTL FALLS  CLOUDY    53  23  31 SE10      30.02F
ELY            CLOUDY    52  19  28 S10       30.06F
CLOQUET        CLOUDY    50  23  34 E10       30.05F
BRAINERD       CLOUDY    54  24  31 S12G23    30.00F
HIBBING        PTSUNNY   54  20  26 S12       30.04F
ALEXANDRIA     LGT RAIN  40  37  89 SE20G29   29.92F FOG
SAINT CLOUD    LGT RAIN  45  36  70 SE15G21   30.01F
MINNEAPOLIS    LGT RAIN  42  37  82 SE16      30.06F
$$

  *****  WEATHER ACROSS SOUTH DAKOTA  *****

CITY           SKY/WX    TMP DP  RH WIND       PRES   REMARKS
SIOUX FALLS    PTSUNNY   61  41  47 SE28G38   29.71F
BROOKINGS      NOT AVBL
WATERTOWN      CLOUDY    48  36  63 SE20G33   29.71F
HURON          MOSUNNY   65  39  38 SE23G35   29.60F
SISSETON         N/A     43  39  86 SE32G39   29.75F
ABERDEEN       CLOUDY    54  37  52 SE31G44   29.64F
MITCHELL       MOSUNNY   68  41  37 SE30G41   29.59F
PIERRE         CLOUDY    68  43  40 E18       29.48F
MOBRIDGE       LGT RAIN  56  44  64 S17       29.52F
RAPID CITY     CLOUDY    65  43  44 NW17G23   29.56R
$$

  *****  SOME WEATHER IN NEARBY STATES *****

CITY           SKY/WX    TMP DP  RH WIND       PRES   REMARKS
GLASGOW MT     CLOUDY    53  29  39 NW22G32   29.53R
GREAT FALLS MT MOSUNNY   50  23  34 W32G41    29.66S
CHEYENNE WY    SUNNY     58  24  27 W24G37    29.68F
SCOTTSBLUFF NE SUNNY     66  22  18 NW35G46   29.66R
OMAHA NE       LGT RAIN  52  43  71 SE31G39   29.71F
DES MOINES IA  LGT RAIN  47  40  76 SE10G22   29.98F
DAVENPORT IA   PTSUNNY   55  29  36 SE13      30.10F
CHICAGO IL     PTSUNNY   50  25  37 E10G16    30.15F
EAU CLAIRE WI  CLOUDY    52  24  33 E10       30.08F
LA CROSSE WI   CLOUDY    52  29  41 S10       30.09F
$$

  *****  SOME NATIONAL WEATHER *****

CITY           SKY/WX    TMP DP  RH WIND       PRES   REMARKS
LA GUARDIA NY  PTSUNNY   56  34  43 NW23G30   29.59R
RALEIGH NC     SUNNY     68  27  21 NW12G22   29.85S
ATLANTA GA     SUNNY     74  36  25 N13       29.94F
NEW ORLEANS LA MOSUNNY   81  59  47 N8        29.95F
OKLAHOMA CITY  PTSUNNY   84  55  36 S23G32    29.80F
ALBUQUERQUE NM MOSUNNY   71  19  14 W14G21    29.84F
SALT LAKE CITY MOSUNNY   47  25  42 W8        30.05R
LOS ANGELES CA PTSUNNY   68  48  48 W12       29.97S
BOISE ID       CLOUDY    50  31  48 SW10      30.03S
SEATTLE WA     CLOUDY    50  41  71 SW9       29.91S
$$

*** WEATHER ACROSS MANITOBA...SASKATCHEWAN AND ONTARIO ***
                ***ONTARIO***

CITY           SKY/WX    TMP DP  RH WIND       PRES   REMARKS
GERALDTON      MOSUNNY   46  27  46 W7        30.10F
THUNDER BAY    PTSUNNY   54  25  32 SE7       30.12F
SIOUX LOOKOUT  PTSUNNY   52  23  32 SW6       30.06F
TORONTO        MOSUNNY   46  23  39 N22G32    29.96R
BIG TROUT LK   PTSUNNY   45  19  36 S5        30.11S
PICKLE LAKE    PTSUNNY   52  21  30 NE3       30.07F
DRYDEN         SUNNY     52  19  28 S12G18    30.04F
KENORA         CLOUDY    52  23  32 S12G20    30.02F
$$
                *** MANITOBA***

CITY           SKY/WX    TMP DP  RH WIND       PRES   REMARKS
BRANDON        LGT RAIN  45  41  87 E17G23    29.77F
DAUPHIN        CLOUDY    46  36  66 SE22G30   29.82F
ISLAND LAKE    MOSUNNY   54  45  71 S6        30.05F
PILOT MOUND      N/A     43  41  93 E23G30      N/A
THE PAS        CLOUDY    50  28  43 E13G21    29.96F
THOMPSON       MOSUNNY   37  25  60 NE16      30.15S
WINNIPEG       CLOUDY    57  27  30 SE23      29.90F
LYNN LAKE      SUNNY     34  23  64 E16       30.15F WCI  23
CHURCHILL      FLURRIES  23  19  86 N15       30.31R WCI  10
GILLAM         PTSUNNY   30  25  80 NE8       30.24R WCI  23
$$
                ***SASKATCHEWAN***

CITY           SKY/WX    TMP DP  RH WIND       PRES   REMARKS
ESTEVAN        LGT RAIN  48  45  87 SE24G32   29.51R
KINDERSLEY     LGT RAIN  46  45  93 E9        29.38S
LLOYDMINSTER   LGT SNOW  34  32  93 E24G37    29.47R FOG     WCI  21
PRINCE ALBERT  CLOUDY    50  34  53 E23G31    29.65F
REGINA         LGT RAIN  45  43  93 SE24      29.50S FOG



USA.gov is the U.S. government's official web portal to all federal, state and local government web resources and services.